AC8JV Weather Reports


Display with metric or nautical units.
time (UTC)temp
F
wind
direction
speed
MPH
gust
MPH
rain 1hr
in
rain 24hr
in
rain mn
in
humidity
%
barometer
mb
20260503050003 37 188 2.0 4.0 0.00 0.00 0.00 68 1016.1
20260503044957 38 199 2.0 4.0 0.00 0.00 0.00 67 1016.2
20260503044028 38 200 1.0 4.0 0.00 0.00 0.00 66 1016.2
20260503043006 38 197 1.0 4.0 0.00 0.00 0.00 64 1016.3
20260503042014 39 198 1.0 3.0 0.00 0.00 0.00 63 1016.3
20260503041008 39 198 1.0 3.0 0.00 0.00 0.00 63 1016.4
20260503040012 39 198 2.0 5.0 0.00 0.00 0.00 63 1016.5
20260503035015 39 197 2.0 5.0 0.00 0.00 0.00 63 1016.6
20260503034004 39 195 3.0 6.0 0.00 0.00 0.00 62 1016.7
20260503033002 40 203 2.0 6.0 0.00 0.00 0.00 61 1016.8
20260503032003 40 209 2.0 5.0 0.00 0.00 0.00 60 1016.9
20260503031019 40 210 2.0 5.0 0.00 0.00 0.00 60 1016.9
20260503030003 40 211 2.0 4.0 0.00 0.00 0.00 59 1017.0
20260503025024 40 211 2.0 4.0 0.00 0.00 0.00 58 1017.1
20260503024010 40 214 2.0 5.0 0.00 0.00 0.00 57 1017.1
20260503023011 41 209 3.0 5.0 0.00 0.00 0.00 57 1017.2
20260503022007 41 213 3.0 5.0 0.00 0.00 0.00 56 1017.1
20260503021116 42 214 3.0 5.0 0.00 0.00 0.00 56 1017.3
20260503020008 42 250 1.0 5.0 0.00 0.00 0.00 58 1017.2
20260503015001 42 223 2.0 5.0 0.00 0.00 0.00 51 1017.2
20260503014003 42 234 2.0 5.0 0.00 0.00 0.00 50 1017.2
20260503013035 43 240 2.0 5.0 0.00 0.00 0.00 50 1017.1
20260503012028 43 236 2.0 5.0 0.00 0.00 0.00 49 1017.2
20260503011011 43 244 2.0 5.0 0.00 0.00 0.00 46 1017.2
20260503010111 44 254 2.0 5.0 0.00 0.00 0.00 46 1017.2
20260503005021 44 256 1.0 3.0 0.00 0.00 0.00 47 1017.2
20260503004020 45 257 3.0 6.0 0.00 0.00 0.00 46 1017.3
20260503003013 45 279 3.0 8.0 0.00 0.00 0.00 46 1017.1
20260503002007 46 277 4.0 9.0 0.00 0.00 0.00 45 1017.2
20260503001051 46 281 4.0 9.0 0.00 0.00 0.00 43 1017.2
20260503000014 47 248 3.0 8.0 0.00 0.00 0.00 42 1017.2
20260502234959 48 271 6.0 10.0 0.00 0.00 0.00 40 1017.3
20260502234032 49 281 5.0 14.0 0.00 0.00 0.00 37 1017.3
20260502233002 50 294 6.0 10.0 0.00 0.00 0.00 35 1017.3
20260502232002 50 271 4.0 10.0 0.00 0.00 0.00 36 1017.3
20260502231000 50 288 8.0 12.0 0.00 0.00 0.00 36 1017.4
20260502230000 50 313 5.0 14.0 0.00 0.00 0.00 35 1017.4
20260502225005 50 286 7.0 14.0 0.00 0.00 0.00 34 1017.5
20260502224000 50 268 7.0 16.0 0.00 0.00 0.00 36 1017.6
20260502222958 51 315 10.0 14.0 0.00 0.00 0.00 35 1017.6
20260502222002 51 267 7.0 18.0 0.00 0.00 0.00 36 1017.7
20260502221004 51 271 8.0 14.0 0.00 0.00 0.00 37 1017.7
20260502220005 51 304 7.0 14.0 0.00 0.00 0.00 37 1017.7
20260502215050 51 5 7.0 16.0 0.00 0.00 0.00 36 1017.6
20260502214013 51 277 5.0 17.0 0.00 0.00 0.00 44 1017.7
20260502213008 51 294 11.0 16.0 0.00 0.00 0.00 38 1017.8
20260502212003 51 286 11.0 19.0 0.00 0.00 0.00 41 1017.8
20260502211004 51 283 8.0 18.0 0.00 0.00 0.00 39 1017.8
20260502210002 51 278 9.0 15.0 0.00 0.00 0.00 43 1017.9
20260502205010 50 296 9.0 20.0 0.00 0.00 0.00 44 1018.0
20260502204007 50 323 11.0 18.0 0.00 0.00 0.00 43 1018.1
20260502203016 50 277 8.0 19.0 0.00 0.00 0.00 42 1018.2
20260502202021 50 300 6.0 23.0 0.00 0.00 0.00 40 1018.2
20260502201001 50 290 12.0 18.0 0.00 0.00 0.00 42 1018.4
20260502200000 50 288 11.0 21.0 0.00 0.00 0.00 43 1018.5
20260502195012 50 298 14.0 23.0 0.00 0.00 0.00 41 1018.6
20260502194000 50 295 6.0 23.0 0.00 0.00 0.00 46 1018.6
20260502193040 49 262 10.0 19.0 0.00 0.00 0.00 46 1018.8
20260502192006 49 297 12.0 21.0 0.00 0.00 0.00 42 1018.8
20260502191000 48 252 9.0 19.0 0.00 0.00 0.00 46 1018.8
20260502190001 48 279 13.0 21.0 0.00 0.00 0.00 44 1019.0
20260502185002 49 252 9.0 17.0 0.00 0.00 0.00 45 1019.0
20260502184006 49 284 7.0 21.0 0.00 0.00 0.00 44 1019.2
20260502183001 49 254 12.0 19.0 0.00 0.00 0.00 49 1019.1
20260502182012 49 325 8.0 19.0 0.00 0.00 0.00 46 1019.2
20260502181000 50 284 12.0 19.0 0.00 0.00 0.00 49 1019.2
20260502164003 47 304 10.0 18.0 0.00 0.00 0.00 54 1019.7
20260502163100 46 303 6.0 15.0 0.00 0.00 0.00 52 1019.6
20260502162001 46 264 7.0 12.0 0.00 0.00 0.00 53 1019.8
20260502161029 45 283 4.0 11.0 0.00 0.00 0.00 56 1019.8
20260502152000 45 332 6.0 12.0 0.00 0.00 0.00 53 1020.0
20260502151002 45 269 5.0 10.0 0.00 0.00 0.00 54 1019.8
20260502123005 36 351 5.0 9.0 0.00 0.00 0.00 84 1020.1
20260502122010 35 324 4.0 6.0 0.00 0.00 0.00 85 1020.2
20260502121017 34 28 2.0 8.0 0.00 0.00 0.00 85 1020.1
20260502114959 32 338 4.0 8.0 0.00 0.00 0.00 87 1020.0
20260502114005 31 336 4.0 5.0 0.00 0.00 0.00 88 1019.8
20260502113003 31 298 1.0 3.0 0.00 0.00 0.00 87 1019.7
20260502111958 31 298 2.0 3.0 0.00 0.00 0.00 86 1019.7
20260502110957 30 298 2.0 3.0 0.00 0.00 0.00 85 1019.7
20260502110000 31 298 2.0 3.0 0.00 0.00 0.00 83 1019.7
20260502105009 31 298 2.0 2.0 0.00 0.00 0.00 82 1019.7
20260502104008 31 298 1.0 3.0 0.00 0.00 0.00 80 1019.6
20260502103020 31 298 1.0 3.0 0.00 0.00 0.00 79 1019.7
20260502102031 32 298 2.0 3.0 0.00 0.00 0.00 79 1019.7
20260502101005 32 298 1.0 4.0 0.00 0.00 0.00 78 1019.7
20260502091015 34 291 3.0 5.0 0.00 0.00 0.00 76 1019.2
20260502071012 35 303 2.0 5.0 0.00 0.00 0.00 75 1019.1
20260502065959 35 300 3.0 5.0 0.00 0.00 0.00 76 1019.0
20260502064958 35 281 4.0 7.0 0.00 0.00 0.00 76 1019.1
20260502063958 35 288 3.0 5.0 0.00 0.00 0.00 76 1019.1
20260502062957 35 290 3.0 4.0 0.00 0.00 0.00 76 1019.1
20260502061956 35 309 3.0 4.0 0.00 0.00 0.00 75 1019.3
20260502061022 35 325 2.0 5.0 0.00 0.00 0.00 75 1019.3
20260502060002 35 319 3.0 7.0 0.00 0.00 0.00 75 1019.4
20260502055003 35 296 3.0 5.0 0.00 0.00 0.00 75 1019.4
20260502053958 35 292 3.0 5.0 0.00 0.00 0.00 74 1019.5
20260502053001 35 289 3.0 4.0 0.00 0.00 0.00 74 1019.5
20260502052004 35 289 3.0 5.0 0.00 0.00 0.00 74 1019.4
20260502051038 35 292 3.0 5.0 0.00 0.00 0.00 74 1019.2